Flag for Brazil Weather past 2 weeks in Porto Alegre, Rio Grande do Sul, Brazil

Now
64 °F

Passing clouds.


Feels Like: 64 °F
Forecast: 56 / 67 °F
Wind: 9 mph from Southeast

Location: Porto Alegre Aero-Porto

Current Time: Sep 1, 2015 at 5:20:53 AM

Latest Report: Sep 1, 2015 at 4:00 AM


Visibility: N/A

Pressure: 30.12 "Hg

Humidity: 83%

Dew point: 59 °F

Location of Porto AlegreLocation

Historic Weather in Porto Alegre — Graph

°F

Porto Alegre temperature yesterday

Maximum temperature yesterday: 88 °F (at 2:00 PM)
Minimum temperature yesterday: 55 °F (at 7:00 AM)
Average temperature yesterday: 72 °F

Past Weeks' High & Low Weather Summary

 TemperatureHumidityPressure
High88 °F (Aug 31, 2:00 PM)100% (Aug 22, 8:00 PM)30.24 "Hg (Aug 22, 8:00 PM)
Low45 °F (Aug 26, 5:00 PM)29% (Aug 27, 4:00 PM)29.77 "Hg (Aug 22, 4:00 PM)
Average65 °F73%30.01 "Hg
* Reported Aug 17 3:00 AM — Sep 1 3:00 AM, Porto Alegre, Weather by CustomWeather, © 2015

Note: Actual official high and low records may vary slightly from our data, if they occured in-between our weather recording intervals... More about our weather records

Advertising

Porto Alegre weather history for previous 24 hours

 ConditionsComfort  
Time TempWeatherWind HumidityBarometerVisibility
3:00 AM
Tue, Sep 1
66 °FPassing clouds.12 mph83%30.12 "HgN/A
2:00 AM68 °FPassing clouds.12 mph78%30.09 "HgN/A
12:00 AM70 °FPassing clouds.22 mph78%N/AN/A
11:00 PM
Mon, Aug 31
73 °FPassing clouds.20 mph65%N/AN/A
10:00 PM75 °FClear.5 mph69%29.92 "Hg10 mi
9:00 PM79 °FClear.6 mph58%29.89 "Hg10 mi
8:00 PM79 °FClear.5 mph54%29.89 "Hg10 mi
7:00 PM79 °FClear.1 mph54%29.86 "Hg10 mi
6:00 PM82 °FClear.3 mph45%29.86 "Hg10 mi
5:00 PM86 °FSunny.7 mph40%29.86 "Hg10 mi
4:00 PM88 °FSunny.8 mph33%29.86 "Hg10 mi
3:00 PM88 °FSunny.12 mph31%29.86 "Hg10 mi
2:00 PM88 °FSunny.7 mph35%29.89 "Hg10 mi
1:00 PM84 °FSunny.8 mph43%29.92 "Hg10 mi
12:00 PM81 °FSunny.9 mph48%29.95 "Hg10 mi
11:00 AM75 °FPassing clouds.8 mph57%29.98 "HgN/A
10:00 AM72 °FPassing clouds.7 mph65%29.98 "HgN/A
9:00 AM66 °FClear.3 mph78%29.98 "Hg5 mi
8:00 AM63 °FClear.2 mph88%29.98 "Hg5 mi
7:00 AM55 °FClear.2 mph94%29.98 "Hg5 mi
6:00 AM59 °FClear.3 mph88%29.95 "Hg5 mi
5:00 AM57 °FClear.2 mph94%29.95 "Hg10 mi
Weather by CustomWeather, © 2015

See weather overviewHow to use our weather pages